Find Kosmos-1732

NORAD ID: 16593 Int'l Des: 1986-015 Owner: VTS Country: SU operational
Auch bekannt als: COSMOS 1732 spacetrack, celestrak
LEOCIRCULAR

Aktuelle Ansicht

3D-Globus wird geladen...

About Kosmos-1732

Kosmos-1732 (NORAD 16593) is a satellite launched Feb 11, 1986 by VTS of SU. It operates in LEO, CIRCULAR orbit with a mass of 1557.00 kg.

Nächste Überflüge

Passes for default location (London). Set your location on the main map for personalized predictions.

Höhenverlauf

Loading altitude history...

Zweizeiliger Elementsatz

1 16593U 86015A 26263.24510034 -.00000018 00000-0 -64006-5 0 9994
2 16593 73.6120 177.9711 0027298 289.3964 70.4130 12.41028096839612
Epoch: 20. Sept. 2026 • Age: 19 hours

Aktueller Status

Höhe 1508.1 km
Apogäum / Perigäum N/A
Geschwindigkeit 7.11 km/s
Subsatellitenpunkt -27.97°S, 0.31°W
Startdatum 11. Feb. 1986
Alter 40.6 years
Typ other

Technische Details

Klassifizierung Payload
Masse 1557.00 kg
Trockenmasse 1557.00 kg
Gesamtmasse 1557.00 kg
Länge 5.80 m
Durchmesser 2.40 m
Spannweite 17.80 m
Form Cyl + 2 Pan + Ant
Hersteller NPOPM
Bus-Typ KAUR-1 11F666
Phasenstatus In Orbit
Besitzer/Staat VTS/SU

Most Searched